sat.trackr.live / text

‹ back to catalog

STARLINK-32136

NORAD 61515 · 2024-183G

PAYLOAD ACTIVE UNKNOWN

§ Identity

Operator
Country
US
Launch date
2024-10-15
Launch site
AFETR
Launch vehicle
Mass (kg)
RCS (m²)

Purposes: comms

External: N2YO · Heavens-Above · Gunter

§ Orbital elements

Epoch: 2026-09-20T12:55:42.363264Z

Period
94.01 min
Inclination
53.1621°
Eccentricity
0.0001294
Mean motion
15.31699007 rev/d
Perigee alt
469.9 km
Apogee alt
471.6 km
Semi-major
6,848.9 km
B*
4.2501e-5
RAAN
316.0608°
Arg perigee
77.9736°
Mean anomaly
282.1411°
Rev number
10,950

§ Raw data

STARLINK-321361 61515U 24183G   26263.53868476  .00000954  00000+0  42501-4 0  99952 61515  53.1621 316.0608 0001294  77.9736 282.1411 15.31699007109502

JSON: /api/v1/satellites/61515 · /tle

For live sub-satellite position, see the globe view (requires WebGL).

§ Visibility from observer

Set your observer location to see the next 7 days of passes ≥ 10°. The values pass through the URL so the page stays shareable.

No JS? Fill the form by hand. The geolocation button needs JavaScript.